Home   Weather   Enschede   Past weeks

Flag for Netherlands Past Weather in Enschede, Netherlands — Yesterday and Last 2 Weeks

Now
45 °F

Overcast.


Feels Like: 40 °F
Forecast: 41 / 46 °F
Wind: 9 mph from Southwest

Location: Deelen

Current Time: Dec 8, 2016 at 5:10:11 am

Latest Report: Dec 8, 2016 at 4:25 am


Visibility: N/A

Pressure: 30.36 "Hg

Humidity: 66%

Dew Point: 34 °F

Location of EnschedeLocation

Past Weather in Enschede — Graph

°F

Enschede Temperature Yesterday

Maximum temperature yesterday: 46 °F (at 2:55 pm)
Minimum temperature yesterday: 34 °F (at 12:25 am)
Average temperature yesterday: 41 °F

High & Low Weather Summary for the Past Weeks

 TemperatureHumidityPressure
High54 °F (Nov 23, 2:55 pm)100% (Nov 23, 3:25 am)30.57 "Hg (Nov 23, 3:25 am)
Low18 °F (Nov 30, 2:25 am)56% (Nov 29, 2:55 pm)29.98 "Hg (Nov 23, 3:25 am)
Average36 °F87%30.29 "Hg
* Reported Nov 23 3:25 am — Dec 8 3:55 am, Enschede, Weather by CustomWeather, © 2016

Note: Actual official high and low records may vary slightly from our data, if they occured in-between our weather recording intervals... More about our weather records

Advertising

Enschede Weather History for the Previous 24 Hours

Scroll right to see more
 ConditionsComfort  
Time TempWeatherWind HumidityBarometerVisibility
3:55 am
Thu, Dec 8
45 °FPassing clouds.10 mph66%30.36 "HgN/A
3:25 am45 °FPassing clouds.10 mph71%30.36 "HgN/A
2:55 am45 °FOvercast.12 mph71%30.36 "HgN/A
2:25 am45 °FPassing clouds.10 mph71%30.36 "HgN/A
1:55 am45 °FPassing clouds.12 mph71%30.36 "HgN/A
1:25 am45 °FPassing clouds.13 mph76%30.36 "HgN/A
12:55 am45 °FQuite cool.14 mph76%30.36 "HgN/A
12:25 am45 °FPassing clouds.13 mph76%30.36 "HgN/A
11:55 pm
Wed, Dec 7
45 °FPassing clouds.12 mph76%30.36 "HgN/A
11:25 pm45 °FPassing clouds.13 mph76%30.36 "HgN/A
10:55 pm46 °FPassing clouds.13 mph71%30.36 "HgN/A
10:25 pm46 °FPassing clouds.13 mph71%30.36 "HgN/A
9:55 pm46 °FPassing clouds.13 mph71%30.36 "HgN/A
9:25 pm46 °FCool.13 mph76%30.36 "HgN/A
8:55 pm46 °FPassing clouds.13 mph76%30.36 "HgN/A
8:25 pm46 °FPassing clouds.13 mph76%30.36 "HgN/A
7:55 pm46 °FPassing clouds.12 mph76%30.36 "HgN/A
7:25 pm46 °FPassing clouds.9 mph76%30.36 "HgN/A
6:55 pm46 °FOvercast.12 mph76%30.36 "HgN/A
6:25 pm46 °FOvercast.10 mph76%30.36 "HgN/A
5:55 pm46 °FOvercast.10 mph76%30.36 "HgN/A
5:25 pm46 °FPassing clouds.8 mph76%30.36 "HgN/A
4:55 pm46 °FPassing clouds.8 mph76%30.36 "HgN/A
4:25 pm46 °FOvercast.10 mph76%30.36 "HgN/A
3:55 pm46 °FOvercast.9 mph76%30.36 "HgN/A
3:25 pm46 °FOvercast.9 mph76%30.36 "HgN/A
2:55 pm46 °FOvercast.9 mph76%30.36 "HgN/A
2:25 pm45 °FOvercast.9 mph76%30.36 "HgN/A
1:55 pm45 °FOvercast.7 mph76%30.36 "HgN/A
1:25 pm45 °FOvercast.9 mph76%30.36 "HgN/A
12:55 pm45 °FOvercast.10 mph76%30.36 "HgN/A
12:25 pm45 °FMostly cloudy.9 mph76%30.39 "HgN/A
11:55 am43 °FBroken clouds.13 mph76%30.39 "HgN/A
11:25 am43 °FCloudy.13 mph76%30.39 "HgN/A
10:55 am41 °FPartly sunny.10 mph81%30.39 "HgN/A
10:25 am41 °FOvercast.10 mph81%30.39 "HgN/A
9:55 am39 °FOvercast.10 mph81%30.39 "HgN/A
9:25 am39 °FOvercast.12 mph81%30.39 "HgN/A
8:55 am39 °FOvercast.10 mph81%30.39 "HgN/A
8:25 am39 °FOvercast.10 mph81%30.39 "HgN/A
7:55 am37 °FOvercast.8 mph81%30.39 "HgN/A
7:25 am36 °FOvercast.6 mph87%30.39 "HgN/A
6:55 am36 °FPassing clouds.6 mph87%30.39 "HgN/A
6:25 am36 °FMostly cloudy.6 mph87%30.39 "HgN/A
5:55 am36 °FOvercast.6 mph87%30.39 "HgN/A
5:25 am36 °FPartly cloudy.6 mph87%30.39 "HgN/A
Weather by CustomWeather, © 2016

See weather overviewHow to use our weather pages